This demonstration page uses our WeatherBlox Daily Observations layout. Learn more.

Left ArrowRight Arrow

Hourly Observations for April 30, 2019

Temp ( °F °C ) Dew Point ( °F °C ) Humidity (%) Winds ( mph kmh ) Pressure ( in mb ) Visibility ( mi km ) Precip ( " mm )
12:53 am 00:53 Clear 64 17.8 60 15.6 87 87 Calm 30.18 1022 10 16 0.00 0.00
1:53 am 01:53 Clear 63 17.2 60 15.6 90 90 Calm 30.17 1022 10 16 0.00 0.00
2:53 am 02:53 Clear 60 15.6 59 15 96 96 Calm 30.17 1022 10 16 0.00 0.00
3:53 am 03:53 Clear 59 15 58 14.4 96 96 Calm 30.17 1022 10 16 0.00 0.00
4:53 am 04:53 Clear 59 15 58 14.4 96 96 Calm 30.20 1023 10 16 0.00 0.00
5:53 am 05:53 Clear 58 14.4 58 14.4 100 100 ENE 3 6 30.21 1023 10 16 0.00 0.00
6:53 am 06:53 Sunny 57 13.9 57 13.9 100 100 Calm 30.22 1023 10 16 0.00 0.00
7:53 am 07:53 Sunny 61 16.1 60 15.6 97 97 Calm 30.22 1024 10 16 0.00 0.00
8:53 am 08:53 Sunny 66 18.9 62 16.7 87 87 Calm 30.22 1023 10 16 0.00 0.00
9:53 am 09:53 Sunny 71 21.7 62 16.7 73 73 Calm 30.22 1023 10 16 0.00 0.00
10:53 am 10:53 Sunny 76 24.4 64 17.8 67 67 Calm 30.23 1024 10 16 0.00 0.00
11:53 am 11:53 Sunny 80 26.7 65 18.3 60 60 Calm 30.22 1023 10 16 0.00 0.00
12:53 pm 12:53 Sunny 82 27.8 62 16.7 51 51 SW 5 7 30.21 1023 10 16 0.00 0.00
1:53 pm 13:53 Mostly Sunny 85 29.4 62 16.7 46 46 SSE 9 15 30.20 1023 10 16 0.00 0.00
2:53 pm 14:53 Mostly Sunny 85 29.4 60 15.6 43 43 VRB 3 6 30.18 1022 10 16 0.00 0.00
3:53 pm 15:53 Mostly Sunny 86 30 61 16.1 43 43 VRB 3 6 30.16 1022 10 16 0.00 0.00
4:53 pm 16:53 Sunny 85 29.4 59 15 42 42 S 10 17 30.15 1021 10 16 0.00 0.00
5:53 pm 17:53 Sunny 84 28.9 61 16.1 46 46 SSW 8 13 30.15 1021 10 16 0.00 0.00
6:53 pm 18:53 Sunny 84 28.9 60 15.6 44 44 S 8 13 30.14 1021 10 16 0.00 0.00
7:53 pm 19:53 Partly Cloudy 82 27.8 61 16.1 49 49 SSE 9 15 30.15 1021 10 16 0.00 0.00
8:53 pm 20:53 Clear 80 26.7 59 15 49 49 SE 6 9 30.15 1021 10 16 0.00 0.00
9:53 pm 21:53 Clear 77 25 58 14.4 52 52 Calm 30.17 1022 10 16 0.00 0.00
10:53 pm 22:53 Clear 74 23.3 58 14.4 57 57 SSE 3 6 30.17 1022 10 16 0.00 0.00
11:53 pm 23:53 Clear 67 19.4 62 16.7 84 84 Calm 30.16 1021 10 16 0.00 0.00

Powered by AerisWeather